Last 24 Hours

Squaw-Red Dog 6200'

Hourly Data | America/Los_Angeles
as of 8/12/20 2:44 PM PDT
Date & Time Temp (°F) RH (%) Dew Pt (°F) Wet Bulb (°F) Wind Dir (°) Wind Spd (mph) Wind Gust (mph) Latest Rain (In) New Snow (in) SnowDepth (in) Daily Min Temp (°F) Daily Max Temp (°F) Daily Rain (In)
8/12/20 - 1400 74.7 19 29.6 51.2 N | 11 11.2 20.8 0.00 - 330.7 41.5 75.8 0.00
8/12/20 - 1300 73.9 18 27.7 50.4 NNE | 15 12.8 20.9 0.00 - 319.0 41.5 74.7 0.00
8/12/20 - 1200 72.8 18 27.1 49.9 NNE | 21 10.9 18.5 0.00 84.9 300.3 41.5 73.6 0.00
8/12/20 - 1100 72.3 22 31.4 51.0 NNE | 17 9.7 17.6 0.00 87.6 301.4 41.5 72.5 0.00
8/12/20 - 1000 70.9 25 32.9 51.0 N | 357 4.3 10.7 0.00 83.1 293.6 41.5 70.9 0.00
8/12/20 - 0900 61.9 50 43.0 51.9 SW | 230 1.4 6.0 0.00 84.6 301.4 41.5 62.0 0.00
8/12/20 - 0800 53.0 68 42.8 48.2 SSW | 202 0.5 4.1 0.00 85.2 291.0 41.5 53.8 0.00
8/12/20 - 0700 47.4 74 39.4 43.9 WSW | 257 0.3 1.4 0.00 80.7 277.2 41.5 51.9 0.00
8/12/20 - 0600 42.6 84 38.1 40.8 WNW | 298 0.5 2.1 0.00 82.2 281.1 42.0 51.9 0.00
8/12/20 - 0500 42.8 85 38.6 41.1 WNW | 299 0.3 2.3 0.00 82.7 282.8 42.8 51.9 0.00
8/12/20 - 0400 44.4 83 39.5 42.4 W | 266 0.3 2.3 0.00 83.0 284.8 44.3 51.9 0.00
8/12/20 - 0300 45.9 81 40.4 43.6 W | 272 0.2 1.6 0.00 82.7 286.4 45.2 51.9 0.00
8/12/20 - 0200 47.4 78 41.0 44.6 SW | 227 0.3 1.7 0.00 84.3 288.7 47.4 51.9 0.00
8/12/20 - 0100 48.4 79 42.1 45.7 SW | 224 0.2 1.9 0.00 80.6 286.4 48.4 51.9 0.00
8/12/20 - 0000 51.8 70 42.2 47.4 W | 268 0.8 3.2 0.00 81.8 286.8 48.5 78.3 0.00
8/11/20 - 2300 56.1 58 41.7 49.0 NW | 308 1.9 4.6 0.00 77.9 281.9 48.5 78.3 0.00
8/11/20 - 2200 56.4 59 42.2 49.4 WNW | 300 2.0 4.5 0.00 80.3 288.3 48.5 78.3 0.00
8/11/20 - 2100 59.9 53 42.6 51.0 W | 278 1.1 4.5 0.00 84.4 294.0 48.5 78.3 0.00
8/11/20 - 2000 66.3 39 40.3 52.2 NW | 304 2.7 7.5 0.00 87.8 298.0 48.5 78.3 0.00
8/11/20 - 1900 70.4 27 34.6 51.4 N | 358 6.3 11.1 0.00 87.5 298.2 48.5 78.3 0.00
8/11/20 - 1800 74.5 25 36.8 53.5 N | 9 8.8 14.9 0.00 90.4 302.8 48.5 78.3 0.00
8/11/20 - 1700 76.2 26 38.4 54.5 N | 11 8.4 16.4 0.00 96.3 311.0 48.5 78.3 0.00
8/11/20 - 1600 76.5 25 38.4 54.6 N | 11 9.1 16.7 0.00 98.4 314.3 48.5 78.3 0.00
8/11/20 - 1500 77.1 23 36.7 54.2 N | 8 11.3 20.2 0.00 93.8 314.7 48.5 78.3 0.00
8/11/20 - 1400 77.7 26 40.0 55.6 N | 9 11.2 19.1 0.00 - 323.2 48.5 78.3 0.00
Max 77.7 85 43.0 55.6 - 12.8 20.9 0.00 98.4 330.7 48.5 78.3 0.00
Avg 61.6 49 37.9 49.1 - 4.7 9.4 0.00 85.5 297.5 - - -
Min 42.6 18 27.1 40.8 - 0.2 1.4 0.00 77.9 277.2 41.5 51.9 0.00
Total - - - - - - - 0.00 - - - - -